Temp
73 73 74 74 73 73 73 72 73 73 73 74 74 73 73 73 73 73 74 80 80 81 81 82 81 82 81 82 82 82 81 81 81 81 81 81 81 81 81 81 81 81 80
73 73 74 75 77 75 73 74 73 75 72 73 74 74 73 75 75 74 72 74 81 81 81 82 82 81 81 81 81 81 82 82 81 81 81 81 81 81 81 81 81 81 80
75 74 74 74 74 76 76 76 76 76 74 74 76 75 76 73 75 74 73 73 77 81 81 81 81 81 82 81 81 81 81 81 81 81 81 80 80 80 80 80 80 80 80
76 76 76 75 75 78 76 74 74 76 76 74 74 73 73 74 76 75 75 74 75 73 77 80 81 80 82 81 81 82 81 81 80 80 80 80 80 80 80 80 80 80 79
78 76 76 75 76 74 77 76 73 72 74 76 76 72 72 72 74 75 74 74 73 72 72 77 79 79 80 81 80 79 80 81 80 80 80 80 79 79 79 79 79 79 79
78 76 76 76 75 75 74 73 72 72 73 74 75 74 72 72 72 73 74 76 72 72 72 72 73 74 79 80 79 78 79 80 80 80 80 79 79 79 79 79 79 79 79
78 77 76 76 76 74 73 72 71 72 72 76 71 69 70 71 71 72 72 74 73 74 73 72 72 72 74 78 78 78 78 78 78 79 79 78 78 78 78 78 78 78 78
77 77 75 74 74 73 72 70 70 69 69 71 72 69 65 68 71 72 71 73 71 73 73 73 72 71 69 70 74 77 76 76 77 78 78 78 78 77 78 78 78 78 78
78 78 76 74 74 72 70 70 71 70 68 68 71 71 63 63 65 70 71 71 72 70 71 71 72 70 69 67 69 72 75 75 76 77 78 78 78 77 77 76 77 78 77
77 78 77 74 73 72 71 71 72 69 68 66 68 72 73 72 65 64 72 70 72 71 69 70 69 69 67 66 72 75 75 74 74 75 76 77 78 78 77 77 77 77 77
78 77 77 75 73 72 71 71 69 68 67 66 65 66 67 68 67 64 60 64 67 67 67 67 66 65 66 65 64 71 74 74 73 74 74 75 77 78 78 78 78 77 77
74 76 76 74 73 72 72 71 69 67 65 65 65 65 65 66 65 64 62 62 68 68 65 65 64 64 63 64 73 75 74 73 72 72 72 74 74 76 77 76 77 77 76
73 74 74 73 73 74 74 71 69 67 65 64 64 64 65 66 66 64 65 63 62 64 64 63 63 63 67 63 65 72 73 72 71 71 71 72 73 74 74 75 75 76 77
74 74 74 74 74 75 74 71 69 68 65 63 65 64 63 65 66 66 66 66 60 59 60 60 62 62 62 63 67 73 65 71 71 70 70 70 71 72 72 72 73 73 75
76 75 75 74 74 74 73 71 69 68 66 63 63 63 63 62 63 64 65 72 68 57 56 60 60 62 62 63 68 64 64 71 71 70 69 69 69 70 71 71 71 71 71
76 74 74 74 73 73 72 70 68 67 66 63 63 63 62 61 61 62 63 63 65 62 56 58 60 61 62 68 69 64 65 71 71 70 69 69 69 69 70 70 70 70 70
74 74 74 73 72 72 71 69 68 66 65 63 63 63 61 61 60 61 61 61 61 62 59 57 58 60 62 63 65 64 65 62 62 70 70 69 69 69 69 69 69 69 69
75 74 75 74 72 71 70 69 68 67 65 63 62 62 62 65 60 59 60 59 59 60 61 57 57 59 60 62 62 63 65 70 63 69 69 69 68 68 68 67 67 67 67
76 74 75 74 72 71 68 69 68 66 65 63 62 62 61 62 60 60 60 60 59 62 58 58 57 58 59 59 61 60 61 61 68 70 69 68 68 68 67 66 65 64 63
76 76 75 74 73 72 71 68 67 65 64 63 63 62 62 62 62 61 62 61 60 59 58 58 57 57 57 58 56 56 58 58 60 69 69 68 67 67 68 66 66 65 63
77 77 75 74 72 72 71 68 67 64 63 62 63 63 63 68 69 65 62 60 60 58 58 57 55 55 55 55 55 54 54 53 56 56 58 60 60 60 62 63 65 67 65
76 75 74 73 71 74 69 70 68 65 63 62 61 60 62 68 67 69 68 67 64 59 56 56 55 55 55 54 53 53 53 53 53 58 55 58 58 58 58 60 67 65 65
75 74 74 73 72 70 67 69 69 65 63 61 60 59 63 66 63 62 67 67 68 67 67 60 58 57 56 55 54 52 52 51 52 56 55 54 55 57 57 60 65 64 63
74 74 72 72 71 69 66 67 69 63 60 60 59 59 61 59 59 60 60 60 60 61 63 65 61 59 58 57 57 57 55 54 53 55 53 52 52 53 55 56 63 64 62
74 73 73 72 71 68 65 65 66 62 59 59 60 60 60 59 63 65 60 60 59 60 65 65 64 64 64 64 61 58 55 53 51 52 53 52 51 51 51 54 57 63 60
74 73 72 71 69 65 63 63 62 61 59 60 60 60 64 61 62 63 61 60 59 60 60 60 60 62 63 63 66 60 56 52 50 52 54 54 51 51 51 52 54 56 55
MSLP
1017.76 1018.06 1017.84 1017.85 1018.00 1018.12 1017.98 1018.22 1018.17 1018.12 1018.13 1018.03 1018.07 1018.17 1018.75 1018.82 1018.82 1018.78 1018.84 1018.81 1019.18 1019.60 1019.71 1019.80 1020.23 1020.35 1020.53 1020.50 1020.63 1020.84 1021.01 1021.18 1021.36 1021.55 1021.79 1021.90 1021.99 1022.08 1022.30 1022.29 1022.37 1022.59 1022.70
1017.48 1017.51 1017.55 1017.44 1017.35 1017.67 1017.80 1017.68 1017.99 1017.81 1017.98 1017.83 1017.64 1017.70 1018.16 1018.34 1018.31 1018.39 1018.50 1018.83 1018.85 1019.16 1019.45 1019.83 1020.13 1020.28 1020.44 1020.60 1020.64 1020.79 1020.94 1020.99 1021.11 1021.33 1021.53 1021.67 1021.80 1021.87 1021.91 1021.97 1022.11 1022.38 1022.59
1017.23 1017.44 1017.33 1017.34 1017.53 1017.44 1017.51 1017.61 1017.57 1017.68 1017.71 1017.62 1017.73 1017.60 1017.73 1018.20 1018.18 1018.08 1018.23 1018.65 1018.80 1019.05 1019.49 1019.76 1019.97 1020.21 1020.29 1020.42 1020.56 1020.73 1020.77 1020.93 1020.98 1021.06 1021.22 1021.40 1021.62 1021.71 1021.76 1021.79 1021.91 1022.10 1022.25
1017.35 1017.12 1017.24 1017.31 1017.35 1017.24 1017.28 1017.47 1017.61 1017.71 1017.63 1017.56 1017.66 1017.61 1017.74 1017.69 1017.70 1017.84 1018.13 1018.47 1018.79 1019.15 1019.59 1019.74 1019.81 1020.05 1020.05 1020.16 1020.29 1020.43 1020.55 1020.68 1020.83 1020.88 1021.05 1021.14 1021.23 1021.34 1021.53 1021.63 1021.68 1021.73 1021.91
1016.80 1017.11 1017.14 1017.27 1017.44 1017.47 1017.32 1017.51 1017.73 1017.90 1017.85 1017.70 1017.81 1017.84 1018.01 1018.11 1017.95 1017.87 1018.10 1018.36 1018.85 1019.19 1019.63 1019.68 1019.68 1019.87 1019.95 1020.12 1020.31 1020.33 1020.31 1020.33 1020.58 1020.71 1020.78 1020.85 1020.99 1021.09 1021.12 1021.25 1021.36 1021.54 1021.59
1016.61 1017.11 1017.05 1017.11 1017.31 1017.60 1017.78 1017.85 1017.90 1017.80 1017.79 1018.04 1018.13 1018.36 1018.57 1018.41 1018.21 1018.39 1018.46 1018.57 1018.97 1019.04 1019.40 1019.63 1019.67 1019.83 1019.64 1019.92 1020.18 1020.16 1020.07 1020.08 1020.29 1020.43 1020.45 1020.41 1020.44 1020.56 1020.62 1020.76 1020.88 1021.03 1021.25
1016.24 1016.65 1016.82 1016.89 1017.09 1017.63 1017.89 1017.91 1018.07 1017.98 1018.18 1018.21 1018.42 1018.92 1019.04 1019.00 1019.04 1018.89 1018.76 1018.87 1019.12 1019.29 1019.46 1019.47 1019.71 1019.97 1019.92 1020.10 1020.32 1020.38 1020.37 1020.36 1020.37 1020.39 1020.33 1020.09 1019.93 1019.97 1020.02 1020.09 1020.32 1020.53 1020.62
1016.32 1016.68 1016.78 1017.11 1017.22 1017.71 1017.97 1017.97 1018.00 1018.33 1018.42 1018.38 1018.69 1019.17 1019.69 1019.70 1019.57 1019.54 1019.37 1019.51 1019.74 1019.64 1019.72 1019.84 1020.05 1020.41 1020.59 1020.68 1020.67 1020.64 1020.61 1020.52 1020.40 1020.27 1020.07 1019.76 1019.45 1019.38 1019.36 1019.39 1019.55 1019.76 1020.15
1016.40 1016.53 1016.50 1016.89 1017.30 1017.68 1018.08 1018.11 1018.12 1018.37 1018.73 1018.67 1018.47 1018.65 1019.63 1019.88 1020.02 1020.09 1020.03 1019.90 1019.92 1020.11 1020.17 1020.31 1020.44 1020.71 1020.87 1020.99 1020.95 1020.78 1020.65 1020.53 1020.30 1020.06 1019.77 1019.45 1019.01 1018.64 1018.56 1018.60 1018.73 1018.99 1019.46
1016.25 1016.31 1016.49 1016.89 1017.26 1017.60 1018.11 1018.22 1018.35 1018.39 1018.63 1018.97 1018.67 1018.44 1018.35 1018.64 1019.60 1020.62 1020.43 1020.53 1020.51 1020.57 1020.70 1020.63 1020.77 1020.97 1021.09 1021.13 1020.91 1020.77 1020.69 1020.56 1020.37 1020.04 1019.59 1019.11 1018.51 1017.96 1017.75 1017.57 1017.43 1017.93 1018.69
1016.07 1016.33 1016.51 1016.91 1017.25 1017.49 1018.05 1018.22 1018.43 1018.60 1018.64 1018.97 1019.03 1018.99 1018.86 1018.97 1019.31 1020.26 1021.05 1021.19 1021.19 1021.35 1021.21 1021.11 1021.17 1021.27 1021.29 1021.27 1021.17 1020.89 1020.75 1020.60 1020.39 1020.09 1019.75 1019.21 1018.59 1017.94 1017.41 1016.81 1016.22 1016.07 1017.37
1016.33 1016.47 1016.63 1016.85 1016.99 1017.45 1017.85 1018.12 1018.48 1018.66 1018.93 1019.02 1019.12 1019.00 1019.02 1019.16 1019.49 1019.89 1020.82 1021.43 1021.69 1022.07 1021.97 1021.78 1021.63 1021.70 1021.69 1021.59 1021.20 1021.04 1020.97 1020.84 1020.65 1020.35 1019.99 1019.54 1019.04 1018.44 1017.83 1016.90 1014.44 1015.56 1017.17
1016.49 1016.57 1016.69 1016.99 1017.26 1017.32 1017.56 1017.92 1018.49 1018.80 1019.09 1019.20 1019.16 1019.21 1018.95 1018.85 1019.00 1019.52 1020.12 1021.13 1021.68 1022.18 1022.42 1022.39 1022.23 1021.98 1021.82 1021.79 1021.56 1021.36 1021.17 1021.05 1020.86 1020.55 1020.18 1019.80 1019.35 1018.86 1018.35 1017.74 1016.91 1016.50 1016.27
1016.07 1016.24 1016.54 1016.66 1016.93 1017.05 1017.42 1018.02 1018.74 1019.09 1019.48 1019.65 1019.54 1019.48 1019.45 1019.31 1019.01 1019.02 1019.44 1020.40 1021.96 1022.39 1022.65 1022.73 1022.40 1022.27 1022.18 1021.89 1021.70 1021.49 1021.39 1021.13 1020.99 1020.77 1020.43 1020.06 1019.70 1019.39 1019.05 1018.57 1017.87 1017.17 1015.83
1015.77 1015.97 1016.04 1016.48 1016.61 1016.91 1017.32 1017.91 1018.57 1018.97 1019.25 1019.58 1019.70 1019.67 1019.67 1019.75 1019.55 1019.31 1019.21 1019.52 1020.36 1022.23 1022.98 1022.94 1022.71 1022.17 1022.12 1021.95 1021.60 1021.57 1021.43 1021.14 1021.03 1020.87 1020.61 1020.29 1020.01 1019.75 1019.52 1019.30 1019.06 1018.74 1018.58
1015.27 1015.65 1015.95 1016.16 1016.52 1016.89 1017.19 1017.97 1018.57 1018.95 1019.15 1019.60 1019.78 1019.72 1019.67 1019.80 1019.79 1019.69 1019.66 1019.77 1020.12 1021.02 1022.58 1022.62 1022.51 1022.21 1022.02 1021.75 1021.59 1021.59 1021.43 1021.24 1021.12 1021.07 1020.97 1020.75 1020.49 1020.22 1020.05 1019.96 1019.83 1019.63 1019.57
1014.81 1015.27 1015.58 1016.02 1016.34 1016.60 1017.05 1017.59 1018.27 1018.87 1019.11 1019.37 1019.63 1019.84 1020.00 1019.94 1019.97 1019.90 1019.91 1020.00 1020.38 1020.63 1021.80 1022.42 1022.34 1022.29 1022.09 1021.97 1021.82 1021.57 1021.32 1021.45 1021.37 1021.15 1021.14 1021.02 1020.82 1020.67 1020.55 1020.46 1020.40 1020.24 1020.10
1014.36 1014.78 1015.30 1015.83 1016.22 1016.67 1017.09 1017.38 1017.88 1018.40 1018.98 1019.44 1019.65 1019.81 1020.04 1020.20 1020.36 1020.37 1020.30 1020.38 1020.56 1020.59 1021.12 1022.27 1022.45 1022.45 1022.31 1021.96 1021.98 1021.75 1021.43 1021.14 1021.29 1021.21 1021.19 1021.25 1021.23 1021.17 1020.98 1020.80 1020.80 1020.91 1020.75
1014.17 1014.67 1015.03 1015.42 1015.92 1016.41 1016.97 1017.40 1017.72 1018.23 1018.69 1019.05 1019.46 1019.83 1020.03 1020.15 1020.53 1020.62 1020.61 1020.68 1020.84 1021.13 1021.54 1021.97 1022.63 1022.63 1022.60 1022.41 1022.17 1022.10 1021.97 1021.71 1021.31 1021.20 1021.32 1021.25 1021.27 1021.38 1021.26 1021.07 1020.88 1021.00 1020.97
1013.62 1014.08 1014.48 1014.86 1015.35 1015.85 1016.45 1016.97 1017.59 1018.15 1018.56 1018.92 1019.22 1019.50 1019.71 1019.91 1020.17 1020.51 1020.79 1020.87 1021.07 1021.62 1021.99 1022.29 1022.73 1022.97 1023.01 1022.85 1022.79 1022.99 1022.72 1022.39 1022.19 1021.79 1021.57 1021.37 1021.22 1021.38 1021.21 1021.20 1021.10 1021.07 1021.00
1013.07 1013.62 1014.30 1014.85 1015.39 1015.83 1016.13 1016.56 1017.22 1017.85 1018.26 1018.79 1019.18 1019.36 1019.42 1019.61 1019.84 1020.15 1020.47 1020.76 1020.99 1021.59 1021.93 1022.48 1023.14 1023.32 1023.46 1023.37 1023.51 1023.60 1023.51 1023.25 1022.88 1022.75 1022.45 1022.18 1021.91 1021.94 1021.60 1021.43 1021.28 1021.05 1020.89
1012.59 1013.19 1013.75 1014.26 1014.96 1015.39 1015.89 1016.33 1016.98 1017.63 1018.16 1018.51 1019.05 1019.49 1019.69 1019.70 1019.86 1020.11 1020.23 1020.16 1020.23 1020.89 1021.66 1022.33 1023.03 1023.50 1023.50 1023.62 1023.77 1023.93 1023.91 1023.78 1023.53 1022.71 1022.94 1022.87 1022.52 1022.35 1021.93 1021.66 1021.29 1021.01 1020.74
1012.23 1012.84 1013.31 1013.80 1014.27 1014.81 1015.62 1016.24 1016.73 1017.44 1017.98 1018.49 1018.83 1019.14 1019.74 1019.89 1019.83 1019.95 1020.25 1020.19 1020.23 1020.39 1020.50 1021.23 1022.24 1022.73 1023.11 1023.37 1023.55 1023.90 1023.93 1023.96 1023.86 1023.39 1023.09 1023.17 1022.79 1022.55 1022.19 1021.93 1021.43 1021.07 1020.68
1011.91 1012.63 1012.85 1013.41 1013.85 1014.27 1014.83 1015.64 1016.61 1017.23 1017.73 1018.15 1018.97 1019.22 1019.31 1019.52 1019.96 1020.23 1020.28 1020.41 1020.90 1020.99 1021.11 1021.21 1021.58 1022.09 1022.41 1022.70 1022.83 1023.13 1023.50 1023.73 1023.64 1023.37 1023.35 1023.83 1023.21 1022.94 1022.37 1021.99 1021.50 1021.06 1020.67
1011.45 1011.88 1012.13 1012.68 1012.98 1013.59 1014.39 1015.45 1016.35 1017.47 1018.19 1018.21 1018.48 1019.07 1019.43 1019.63 1019.52 1020.01 1020.43 1020.76 1021.35 1021.21 1021.23 1021.32 1021.58 1021.75 1021.87 1022.11 1022.42 1022.88 1023.54 1023.87 1024.21 1023.87 1023.43 1023.79 1023.41 1023.09 1022.60 1022.25 1021.58 1020.99 1020.74
1010.61 1010.94 1011.45 1011.98 1012.63 1013.27 1014.25 1015.40 1016.05 1017.48 1018.25 1018.65 1018.34 1018.84 1019.20 1019.35 1019.71 1019.85 1020.23 1020.64 1021.14 1021.11 1021.31 1021.59 1021.91 1022.03 1022.02 1022.07 1022.01 1022.18 1023.05 1023.79 1023.95 1023.92 1023.22 1023.57 1023.39 1023.29 1023.21 1022.31 1021.72 1021.07 1020.76
Wind_Speed
3 3 4 3 4 3 5 3 4 4 5 5 5 6 6 9 8 4 3 16 14 16 14 12 15 15 14 14 13 12 12 11 11 10 10 10 10 11 11 10 10 10 9
4 3 3 3 4 4 4 4 5 5 5 4 5 6 5 7 8 6 3 5 17 15 16 15 13 11 11 12 11 11 11 10 11 11 10 9 11 11 12 13 11 10 9
3 4 2 2 1 3 2 3 4 3 3 4 7 5 5 6 6 7 6 5 4 15 14 14 11 11 11 10 9 8 10 9 11 12 11 11 9 11 12 11 11 11 11
5 3 2 1 1 0 3 2 3 1 0 4 1 2 3 4 2 3 3 3 3 4 3 8 9 8 8 8 9 8 8 9 9 10 11 12 13 13 12 12 12 13 12
3 3 1 2 2 2 3 2 2 2 1 4 4 3 3 3 4 4 5 5 4 4 3 7 9 5 8 8 5 4 7 12 9 9 10 12 14 14 14 14 14 14 14
3 4 1 2 3 2 2 1 3 1 2 3 4 4 3 2 1 3 2 0 3 4 4 4 3 3 6 6 2 2 4 4 9 9 10 13 14 16 17 16 17 16 16
5 5 3 3 2 3 2 1 1 4 3 1 4 3 4 4 4 4 3 2 2 3 3 2 1 1 2 8 11 9 8 7 6 7 11 13 16 17 18 19 19 18 18
5 4 4 4 5 4 3 3 3 2 1 1 3 3 3 4 3 3 2 4 5 4 4 5 7 6 5 4 7 9 8 7 6 7 10 12 13 16 20 21 21 21 20
5 5 6 5 5 4 3 3 3 4 1 1 1 4 2 3 2 2 2 4 4 3 3 4 7 6 5 4 5 6 9 9 9 8 10 12 15 16 20 21 23 23 21
6 5 6 6 6 4 4 3 2 2 3 2 2 3 2 5 4 2 3 2 2 4 4 4 5 5 5 4 7 9 9 9 10 11 13 15 14 13 18 20 27 26 23
4 5 6 6 6 4 5 5 4 5 2 2 2 1 3 3 4 4 3 1 4 4 3 4 4 4 4 3 3 5 7 8 9 11 12 15 16 16 16 14 22 26 22
3 4 5 5 6 5 5 5 4 5 4 4 1 2 2 3 2 3 4 2 6 3 3 3 4 3 2 1 4 6 6 6 7 9 11 12 14 16 20 22 13 25 24
2 4 5 5 4 5 5 5 5 4 3 3 3 1 0 2 3 3 4 3 3 1 2 3 3 2 2 1 0 5 6 6 6 7 9 11 14 16 19 21 23 19 18
4 6 6 6 6 6 5 6 4 3 4 3 4 3 2 2 1 2 5 8 3 2 3 0 2 2 1 2 4 2 3 6 6 6 7 9 12 14 17 19 21 24 16
4 6 7 7 6 7 6 7 4 4 5 4 3 3 2 2 2 2 2 7 7 4 2 2 1 2 2 2 3 3 2 2 4 6 7 8 10 12 14 16 18 19 22
7 7 7 7 7 7 7 6 4 4 6 3 2 4 2 2 3 3 2 2 3 5 4 3 4 4 2 2 3 1 4 3 3 5 5 7 9 10 12 12 13 14 15
8 8 8 7 8 7 8 8 7 6 6 6 4 4 4 2 3 3 2 2 3 4 5 0 1 2 1 1 4 4 3 2 3 5 5 3 5 7 8 9 9 9 11
7 9 9 8 7 7 7 8 8 7 7 6 5 5 4 3 4 3 2 3 3 2 6 6 2 1 1 2 1 4 4 1 3 5 6 5 2 3 4 5 6 7 7
8 7 9 10 9 8 8 7 7 7 7 7 6 5 5 5 3 2 3 4 3 3 3 4 3 1 2 2 4 2 3 5 2 6 5 9 7 4 2 1 1 1 1
10 11 11 10 11 10 10 8 8 7 7 6 6 6 6 6 6 5 4 4 3 4 3 3 3 2 1 2 3 3 4 3 4 4 6 6 9 4 5 6 5 7 7
11 12 10 8 8 9 8 10 9 8 8 7 5 5 6 7 9 7 4 4 6 4 3 4 3 2 2 3 3 2 2 2 2 2 3 5 4 5 6 7 7 10 10
11 11 11 11 10 8 12 15 12 9 7 8 7 5 4 8 7 10 8 7 7 8 5 4 3 3 2 1 1 1 1 4 3 3 4 3 3 4 4 4 11 9 12
10 11 11 11 12 8 16 16 16 8 8 7 7 7 5 3 7 7 7 8 7 7 7 7 6 5 4 4 4 1 1 2 2 3 2 3 4 5 3 4 9 9 10
12 11 10 10 10 8 19 18 17 8 6 7 6 7 7 8 7 7 7 7 3 4 6 4 7 6 4 6 5 4 3 1 1 3 2 1 2 2 4 4 10 10 11
8 10 10 13 14 11 17 16 14 8 6 7 7 7 7 7 10 12 7 7 4 3 4 4 5 7 9 11 8 4 2 3 2 3 1 2 2 2 2 3 5 7 9
10 9 11 13 13 10 14 15 12 5 4 4 5 6 11 9 10 12 7 7 6 6 4 1 2 3 4 6 10 4 5 3 2 3 3 1 2 2 5 3 4 5 5
Wind_Direction
192 151 249 221 197 212 229 212 219 240 225 247 214 218 171 197 221 209 195 208 201 193 205 198 199 195 194 188 185 186 184 191 195 199 202 198 194 192 195 196 196 187 192
175 188 208 223 220 186 211 231 211 215 222 231 248 227 196 196 214 210 196 212 204 200 200 195 203 199 192 198 190 190 193 201 197 208 212 224 199 203 204 201 199 195 199
212 184 142 206 273 213 268 239 216 189 240 233 244 235 221 182 205 210 183 207 208 201 202 211 212 216 198 192 189 196 204 210 215 209 212 216 218 215 215 211 208 206 202
180 136 165 281 21 251 235 217 260 331 200 213 149 115 47 106 254 223 176 161 167 127 213 241 204 215 216 214 201 215 220 220 225 224 224 220 220 218 219 220 216 214 211
153 151 183 125 95 23 49 55 58 146 68 46 69 97 103 116 127 144 166 159 151 141 179 253 215 237 232 225 218 244 257 231 219 229 232 236 235 232 228 222 219 219 219
186 184 159 151 116 138 62 56 70 6 73 102 108 73 64 89 82 132 135 102 147 162 195 214 206 241 245 225 61 5 3 257 243 252 254 245 235 230 230 228 223 217 217
177 178 156 132 114 121 129 119 110 47 44 32 83 26 51 50 12 30 84 121 123 172 182 204 129 56 24 98 75 61 48 27 354 314 286 276 250 235 232 226 224 222 215
176 180 120 95 134 123 104 71 74 83 358 350 131 103 49 356 27 27 82 94 93 89 92 89 95 73 72 72 77 66 51 33 4 332 307 301 271 253 243 232 223 220 218
175 163 131 121 131 110 121 97 80 99 73 323 67 143 119 178 119 355 33 125 139 114 102 111 108 101 95 88 73 46 44 28 15 349 323 313 290 263 244 242 235 222 215
172 172 137 123 131 126 125 119 89 100 112 42 338 14 20 131 145 84 24 34 72 110 116 124 112 103 91 77 72 63 47 32 19 7 354 343 333 302 253 254 232 220 214
161 157 148 142 133 123 132 123 106 81 68 99 96 356 39 66 79 125 135 9 49 14 37 112 110 116 105 101 84 57 49 34 22 17 15 11 10 5 11 331 230 209 211
131 145 152 142 135 137 138 123 112 102 108 100 80 86 140 145 165 134 113 148 134 39 33 49 101 114 123 118 85 69 52 37 23 17 23 25 26 23 24 20 328 193 208
157 173 153 152 148 156 135 126 117 107 119 113 123 77 97 138 148 134 123 133 129 148 70 35 28 87 133 139 11 49 43 29 22 17 23 29 33 35 36 36 36 29 210
181 166 167 159 161 146 133 114 111 104 91 69 76 73 75 25 24 142 144 137 90 60 40 273 330 50 266 230 215 57 358 10 5 12 21 27 32 38 42 42 41 40 44
186 178 174 170 169 149 137 130 139 136 128 117 82 91 103 42 13 12 115 160 146 142 198 240 214 291 244 225 242 201 237 301 355 6 17 28 32 36 46 54 54 54 65
181 178 175 172 164 158 142 140 134 142 127 117 96 101 84 83 62 32 93 122 108 127 147 193 217 221 268 264 254 197 250 245 314 344 8 39 37 35 35 44 63 72 75
185 182 175 169 171 161 155 146 147 148 131 131 128 111 79 104 102 97 66 93 127 133 131 234 215 237 258 308 359 325 284 228 293 290 316 22 56 56 53 45 38 58 83
182 179 171 172 173 162 162 160 157 153 147 145 143 129 121 109 87 69 71 100 119 96 126 133 178 353 326 340 325 6 346 224 233 283 280 297 348 44 71 74 59 45 51
180 173 170 175 176 164 164 168 156 152 153 156 155 140 137 121 95 93 80 101 106 77 79 122 110 63 26 27 20 349 17 2 317 251 291 284 287 285 285 295 27 32 19
177 181 185 183 177 166 167 162 155 153 152 158 156 158 153 148 149 126 111 123 131 115 99 98 79 86 71 360 75 46 7 2 3 11 356 8 11 354 294 290 289 278 269
185 182 180 179 172 173 170 163 160 160 156 157 164 166 166 154 151 157 138 146 137 124 119 98 81 56 25 26 49 338 27 311 328 349 0 7 36 22 5 352 306 295 279
183 179 184 178 174 187 171 163 157 158 165 153 159 162 157 127 135 138 145 153 156 144 134 123 139 137 173 129 45 46 20 30 356 357 20 1 28 348 351 6 2 329 317
179 186 189 181 183 181 168 164 159 158 162 163 161 153 167 155 132 131 121 94 100 89 141 144 144 172 160 176 151 116 99 145 221 286 35 351 357 357 345 342 344 2 357
185 184 194 187 183 190 170 162 161 152 153 160 169 169 167 162 164 153 142 123 135 131 143 147 160 167 159 160 148 161 161 129 334 311 56 31 319 294 324 312 326 344 352
173 188 189 186 186 179 178 161 141 145 156 179 170 179 179 180 180 167 144 143 179 212 229 192 134 146 160 160 156 116 49 62 338 284 318 154 263 284 304 292 304 318 332
191 184 189 190 191 163 158 161 123 120 168 191 169 192 193 180 196 174 159 166 182 209 179 137 106 94 153 186 178 155 148 160 196 340 256 156 322 38 327 279 298 298 325